GSAT0101 (GALILEO-PFM) 1 37846U 11060A 26163.74233043 -.00000071 00000+0 00000+0 0 9997 2 37846 56.9957 341.8816 0003117 51.3749 308.6629 1.70475562 91048 GSAT0102 (GALILEO-FM2) 1 37847U 11060B 26158.40220003 -.00000063 00000+0 00000+0 0 9998 2 37847 57.0009 342.0270 0003434 13.7700 354.5257 1.70476015 90968 GSAT0103 (GALILEO-FM3) 1 38857U 12055A 26165.54265692 -.00000011 00000+0 00000+0 0 9994 2 38857 55.8050 101.6182 0004917 305.1909 54.7190 1.70473336 84960 GSAT0201 (GALILEO 5) 1 40128U 14050A 26164.64403526 -.00000043 00000+0 00000+0 0 9990 2 40128 48.8793 273.5817 1673953 179.2575 181.0766 1.85519952 78255 GSAT0202 (GALILEO 6) 1 40129U 14050B 26165.97755825 -.00000039 00000+0 00000+0 0 9995 2 40129 48.8947 272.6125 1675464 180.0339 180.0074 1.85520518 80441 GSAT0203 (GALILEO 7) 1 40544U 15017A 26166.45306799 -.00000083 00000+0 00000+0 0 9995 2 40544 56.7863 341.6427 0002092 278.6810 81.2938 1.70475984 69175 GSAT0204 (GALILEO 8) 1 40545U 15017B 26165.53569013 -.00000079 00000+0 00000+0 0 9999 2 40545 56.7953 341.6863 0001910 248.0709 111.9109 1.70475571 32203 GSAT0205 (GALILEO 9) 1 40889U 15045A 26144.30399159 -.00000014 00000+0 00000+0 0 9994 2 40889 54.9357 222.4171 0006405 263.0112 96.9692 1.67409242 66562 GSAT0206 (GALILEO 10) 1 40890U 15045B 26164.35123010 .00000061 00000+0 00000+0 0 9995 2 40890 54.9458 221.7104 0001697 337.4891 22.6033 1.70473791 66976 GSAT0209 (GALILEO 12) 1 41174U 15079A 26165.69239813 -.00000011 00000+0 00000+0 0 9991 2 41174 55.8259 101.3304 0005333 342.7065 17.2319 1.70473698 64734 GSAT0208 (GALILEO 11) 1 41175U 15079B 26165.32611699 -.00000010 00000+0 00000+0 0 9997 2 41175 55.8243 101.3373 0004862 343.1705 16.7693 1.70473576 65146 GSAT0211 (GALILEO 14) 1 41549U 16030A 26165.45012091 .00000059 00000+0 00000+0 0 9997 2 41549 55.0959 221.7703 0002887 323.8922 36.1904 1.70473900 62624 GSAT0210 (GALILEO 13) 1 41550U 16030B 26165.70738424 .00000058 00000+0 00000+0 0 9991 2 41550 55.0955 221.7612 0004648 244.9793 115.0745 1.70473923 62622 GSAT0207 (GALILEO 15) 1 41859U 16069A 26164.22587441 -.00000005 00000+0 00000+0 0 9995 2 41859 55.4965 101.1958 0005340 329.2109 30.7143 1.70473583 59332 GSAT0212 (GALILEO 16) 1 41860U 16069B 26165.25248100 -.00000011 00000+0 00000+0 0 9994 2 41860 55.4947 101.1626 0004642 358.3825 1.5720 1.70473713 59600 GSAT0213 (GALILEO 17) 1 41861U 16069C 26166.20630291 -.00000013 00000+0 00000+0 0 9999 2 41861 55.4975 101.1440 0004958 312.6321 47.2844 1.70474116 59488 GSAT0214 (GALILEO 18) 1 41862U 16069D 26165.17933449 -.00000010 00000+0 00000+0 0 9993 2 41862 55.4956 101.1651 0004255 319.5735 40.3509 1.70473798 59596 GSAT0215 (GALILEO 19) 1 43055U 17079A 26165.66928368 .00000059 00000+0 00000+0 0 9991 2 43055 55.0740 221.5761 0003050 262.9827 97.0848 1.70474552 52949 GSAT0216 (GALILEO 20) 1 43056U 17079B 26164.78727197 .00000061 00000+0 00000+0 0 9994 2 43056 55.0743 221.6004 0004468 275.6764 84.3739 1.70474522 52944 GSAT0217 (GALILEO 21) 1 43057U 17079C 26165.00806614 .00000061 00000+0 00000+0 0 9993 2 43057 55.0725 221.5923 0004743 283.1918 76.8570 1.70474083 52935 GSAT0218 (GALILEO 22) 1 43058U 17079D 26164.05497403 .00000061 00000+0 00000+0 0 9990 2 43058 55.0728 221.6159 0005024 272.4694 87.5720 1.70474471 52944 GSAT0221 (GALILEO 25) 1 43564U 18060A 26161.61257961 -.00000063 00000+0 00000+0 0 9998 2 43564 57.1738 341.9578 0002678 307.2326 52.7584 1.70475913 49054 GSAT0222 (GALILEO 26) 1 43565U 18060B 26165.93829712 -.00000080 00000+0 00000+0 0 9996 2 43565 57.1734 341.8446 0001965 249.2383 110.7413 1.70475611 49174 GSAT0219 (GALILEO 23) 1 43566U 18060C 26164.98602962 -.00000076 00000+0 00000+0 0 9992 2 43566 57.1733 341.8717 0002109 326.6126 33.3787 1.70475843 49138 GSAT0220 (GALILEO 24) 1 43567U 18060D 26165.20701180 -.00000077 00000+0 00000+0 0 9992 2 43567 57.1756 341.8658 0002157 311.2111 48.7740 1.70475528 49123 GSAT0223 (GALILEO 27) 1 49809U 21116A 26162.13215269 -.00000065 00000+0 00000+0 0 9997 2 49809 57.1623 341.8389 0001404 187.4451 176.2704 1.70475860 28084 GSAT0224 (GALILEO 28) 1 49810U 21116B 26165.45828332 -.00000078 00000+0 00000+0 0 9992 2 49810 57.1622 341.7473 0001118 160.2800 197.3797 1.70475791 28154 GSAT0225 (GALILEO 29) 1 59598U 24079A 26165.82952201 -.00000013 00000+0 00000+0 0 9990 2 59598 55.1185 101.1461 0001627 305.1538 273.5653 1.70473806 13278 GSAT0227 (GALILEO 30) 1 59600U 24079C 26165.06991355 -.00000010 00000+0 00000+0 0 9990 2 59600 55.1133 101.1658 0002051 47.7236 312.2495 1.70473921 13317 GSAT0232 (GALILEO 32) 1 61182U 24167A 26165.42205897 .00000060 00000+0 00000+0 0 9999 2 61182 55.1857 221.3898 0006268 227.1556 204.5150 1.70474154 10836 GSAT0226 (GALILEO 31) 1 61183U 24167B 26166.42695424 .00000055 00000+0 00000+0 0 9994 2 61183 55.1841 221.3693 0002964 227.6875 192.0490 1.70474159 10823 GSAT0233 (GALILEO 33) 1 67160U 25302A 26164.11671058 -.00000003 00000+0 00000+0 0 9992 2 67160 54.3316 102.2474 0000940 233.3005 305.0843 1.70473941 3050 GSAT0234 (GALILEO 34) 1 67162U 25302C 26165.58025771 -.00000011 00000+0 00000+0 0 9990 2 67162 54.3363 102.2045 0003043 308.4769 228.2268 1.70473883 3137